Time,TemperatureF,DewpointF,PressureIn,WindDirection,WindDirectionDegrees,WindSpeedMPH,WindSpeedGustMPH,Humidity,HourlyPrecipIn,Conditions,Clouds,dailyrainin,SoftwareType,DateUTC
2013-09-16 00:00:00,48.2,47.7,30.36,ENE,67,1.7,-999.0,98,-99.99,,,0.00,Acu-Link.com,2013-09-16 05:00:00,
2013-09-16 00:16:00,47.8,47.3,30.36,NE,45,0.0,-999.0,98,-99.99,,,0.00,Acu-Link.com,2013-09-16 05:16:00,
2013-09-16 00:31:00,47.7,47.2,30.36,ENE,67,1.1,-999.0,98,-99.99,,,0.00,Acu-Link.com,2013-09-16 05:31:00,
2013-09-16 00:46:00,47.1,46.6,30.36,ENE,67,0.0,-999.0,98,-99.99,,,0.00,Acu-Link.com,2013-09-16 05:46:00,
2013-09-16 01:01:00,46.2,45.7,30.36,East,90,2.7,-999.0,98,-99.99,,,0.00,Acu-Link.com,2013-09-16 06:01:00,
2013-09-16 01:17:00,46.4,45.9,30.36,NW,315,1.7,-999.0,98,-99.99,,,0.00,Acu-Link.com,2013-09-16 06:17:00,
2013-09-16 01:32:00,45.9,45.4,30.37,NE,45,0.0,-999.0,98,-99.99,,,0.00,Acu-Link.com,2013-09-16 06:32:00,
2013-09-16 01:47:00,45.3,44.8,30.38,NE,45,0.0,-999.0,98,-99.99,,,0.00,Acu-Link.com,2013-09-16 06:47:00,
2013-09-16 02:02:00,45.1,44.6,30.38,NNW,337,0.0,-999.0,98,-99.99,,,0.00,Acu-Link.com,2013-09-16 07:02:00,
2013-09-16 02:17:00,45.0,44.5,30.38,WNW,292,0.0,-999.0,98,-99.99,,,0.00,Acu-Link.com,2013-09-16 07:17:00,
2013-09-16 02:33:00,44.4,43.9,30.38,WNW,292,0.0,-999.0,98,-99.99,,,0.00,Acu-Link.com,2013-09-16 07:33:00,
2013-09-16 02:48:00,43.9,43.4,30.39,SE,135,0.0,-999.0,98,-99.99,,,0.00,Acu-Link.com,2013-09-16 07:48:00,
2013-09-16 03:04:00,43.7,43.2,30.39,NNW,337,0.0,-999.0,98,-99.99,,,0.00,Acu-Link.com,2013-09-16 08:04:00,
2013-09-16 03:19:00,43.7,43.2,30.39,WSW,247,0.0,-999.0,98,-99.99,,,0.00,Acu-Link.com,2013-09-16 08:19:00,
2013-09-16 03:35:00,43.5,43.0,30.39,ENE,67,0.0,-999.0,98,-99.99,,,0.00,Acu-Link.com,2013-09-16 08:35:00,
2013-09-16 03:50:00,43.2,42.7,30.39,West,270,0.0,-999.0,98,-99.99,,,0.00,Acu-Link.com,2013-09-16 08:50:00,
2013-09-16 04:05:00,42.4,41.9,30.39,West,270,0.0,-999.0,98,-99.99,,,0.00,Acu-Link.com,2013-09-16 09:05:00,
2013-09-16 04:20:00,42.6,42.1,30.39,WNW,292,0.0,-999.0,98,-99.99,,,0.00,Acu-Link.com,2013-09-16 09:20:00,
2013-09-16 04:35:00,42.3,41.8,30.40,West,270,0.0,-999.0,98,-99.99,,,0.00,Acu-Link.com,2013-09-16 09:35:00,
2013-09-16 04:50:00,41.0,40.5,30.40,West,270,0.0,-999.0,98,-99.99,,,0.00,Acu-Link.com,2013-09-16 09:50:00,
2013-09-16 05:06:00,40.6,40.1,30.41,NNE,22,0.0,-999.0,98,-99.99,,,0.00,Acu-Link.com,2013-09-16 10:06:00,
2013-09-16 05:21:00,40.5,40.0,30.41,NNW,337,0.0,-999.0,98,-99.99,,,0.00,Acu-Link.com,2013-09-16 10:21:00,
2013-09-16 05:36:00,39.6,39.1,30.41,WNW,292,0.0,-999.0,98,-99.99,,,0.00,Acu-Link.com,2013-09-16 10:36:00,
2013-09-16 05:52:00,39.6,39.1,30.41,South,180,0.0,-999.0,98,-99.99,,,0.00,Acu-Link.com,2013-09-16 10:52:00,
2013-09-16 06:07:00,39.6,39.1,30.42,South,180,0.0,-999.0,98,-99.99,,,0.00,Acu-Link.com,2013-09-16 11:07:00,
2013-09-16 06:22:00,39.4,38.9,30.42,West,270,0.0,-999.0,98,-99.99,,,0.00,Acu-Link.com,2013-09-16 11:22:00,
2013-09-16 06:37:00,39.2,38.7,30.42,NE,45,1.7,-999.0,98,-99.99,,,0.00,Acu-Link.com,2013-09-16 11:37:00,
2013-09-16 06:53:00,39.6,39.1,30.43,SW,225,0.0,-999.0,98,-99.99,,,0.00,Acu-Link.com,2013-09-16 11:53:00,
2013-09-16 07:08:00,39.4,38.9,30.43,NE,45,0.0,-999.0,98,-99.99,,,0.00,Acu-Link.com,2013-09-16 12:08:00,
2013-09-16 07:23:00,40.3,39.8,30.43,SSE,157,0.0,-999.0,98,-99.99,,,0.00,Acu-Link.com,2013-09-16 12:23:00,
2013-09-16 07:38:00,42.4,41.9,30.43,NNW,337,3.2,-999.0,98,-99.99,,,0.00,Acu-Link.com,2013-09-16 12:38:00,
2013-09-16 07:54:00,44.4,43.9,30.43,NW,315,1.7,-999.0,98,-99.99,,,0.00,Acu-Link.com,2013-09-16 12:54:00,
2013-09-16 08:09:00,47.5,47.0,30.43,East,90,3.2,-999.0,98,-99.99,,,0.00,Acu-Link.com,2013-09-16 13:09:00,
2013-09-16 08:24:00,50.5,49.1,30.43,East,90,2.7,-999.0,95,-99.99,,,0.00,Acu-Link.com,2013-09-16 13:24:00,
2013-09-16 08:39:00,53.2,49.7,30.44,ESE,112,2.7,-999.0,88,-99.99,,,0.00,Acu-Link.com,2013-09-16 13:39:00,
2013-09-16 08:55:00,50.9,48.9,30.44,East,90,3.7,-999.0,93,-99.99,,,0.00,Acu-Link.com,2013-09-16 13:55:00,
2013-09-16 09:10:00,51.6,49.4,30.44,ENE,67,1.7,-999.0,92,-99.99,,,0.00,Acu-Link.com,2013-09-16 14:10:00,
2013-09-16 09:25:00,52.7,49.2,30.44,SE,135,5.3,-999.0,88,-99.99,,,0.00,Acu-Link.com,2013-09-16 14:25:00,
2013-09-16 09:40:00,53.1,49.0,30.45,ESE,112,5.8,-999.0,86,-99.99,,,0.00,Acu-Link.com,2013-09-16 14:40:00,
2013-09-16 09:56:00,52.7,48.6,30.45,SSE,157,5.3,-999.0,86,-99.99,,,0.00,Acu-Link.com,2013-09-16 14:56:00,
2013-09-16 10:11:00,54.1,49.1,30.45,SSE,157,7.3,-999.0,83,-99.99,,,0.00,Acu-Link.com,2013-09-16 15:11:00,
2013-09-16 10:26:00,54.7,48.3,30.45,South,180,8.3,-999.0,79,-99.99,,,0.00,Acu-Link.com,2013-09-16 15:26:00,
2013-09-16 10:42:00,56.3,49.5,30.45,South,180,5.8,-999.0,78,-99.99,,,0.00,Acu-Link.com,2013-09-16 15:42:00,
2013-09-16 10:57:00,56.1,49.3,30.44,East,90,4.2,-999.0,78,-99.99,,,0.00,Acu-Link.com,2013-09-16 15:57:00,
2013-09-16 11:12:00,57.0,49.5,30.44,East,90,3.2,-999.0,76,-99.99,,,0.00,Acu-Link.com,2013-09-16 16:12:00,
2013-09-16 11:27:00,56.7,48.9,30.44,SSW,202,4.7,-999.0,75,-99.99,,,0.00,Acu-Link.com,2013-09-16 16:27:00,
2013-09-16 11:42:00,57.9,49.7,30.43,SSE,157,9.4,-999.0,74,-99.99,,,0.00,Acu-Link.com,2013-09-16 16:42:00,
2013-09-16 11:57:00,58.6,50.3,30.43,SSE,157,6.3,-999.0,74,-99.99,,,0.00,Acu-Link.com,2013-09-16 16:57:00,
2013-09-16 12:13:00,59.2,50.9,30.43,East,90,3.7,-999.0,74,-99.99,,,0.00,Acu-Link.com,2013-09-16 17:13:00,
2013-09-16 12:28:00,60.6,51.1,30.43,SSE,157,4.7,-999.0,71,-99.99,,,0.00,Acu-Link.com,2013-09-16 17:28:00,
2013-09-16 12:43:00,61.3,52.2,30.42,SSW,202,2.2,-999.0,72,-99.99,,,0.00,Acu-Link.com,2013-09-16 17:43:00,
2013-09-16 12:58:00,61.7,51.8,30.42,SSW,202,2.7,-999.0,70,-99.99,,,0.00,Acu-Link.com,2013-09-16 17:58:00,
2013-09-16 13:13:00,62.2,51.9,30.41,ENE,67,5.8,-999.0,69,-99.99,,,0.00,Acu-Link.com,2013-09-16 18:13:00,
2013-09-16 13:29:00,61.9,51.2,30.41,SSE,157,6.8,-999.0,68,-99.99,,,0.00,Acu-Link.com,2013-09-16 18:29:00,
2013-09-16 13:44:00,62.8,52.1,30.40,ESE,112,4.2,-999.0,68,-99.99,,,0.00,Acu-Link.com,2013-09-16 18:44:00,
2013-09-16 13:59:00,64.0,52.8,30.39,ENE,67,4.7,-999.0,67,-99.99,,,0.00,Acu-Link.com,2013-09-16 18:59:00,
2013-09-16 14:14:00,64.0,52.4,30.38,South,180,5.8,-999.0,66,-99.99,,,0.00,Acu-Link.com,2013-09-16 19:14:00,
2013-09-16 14:30:00,64.4,50.7,30.38,SSE,157,7.8,-999.0,61,-99.99,,,0.00,Acu-Link.com,2013-09-16 19:30:00,
2013-09-16 14:45:00,64.2,50.5,30.37,South,180,8.3,-999.0,61,-99.99,,,0.00,Acu-Link.com,2013-09-16 19:45:00,
2013-09-16 15:00:00,64.8,51.5,30.36,East,90,3.7,-999.0,62,-99.99,,,0.00,Acu-Link.com,2013-09-16 20:00:00,
2013-09-16 15:15:00,65.5,51.7,30.36,SSE,157,7.8,-999.0,61,-99.99,,,0.00,Acu-Link.com,2013-09-16 20:15:00,
2013-09-16 15:30:00,65.7,51.4,30.35,SSE,157,8.9,-999.0,60,-99.99,,,0.00,Acu-Link.com,2013-09-16 20:30:00,
2013-09-16 15:45:00,66.2,51.9,30.34,ESE,112,8.3,-999.0,60,-99.99,,,0.00,Acu-Link.com,2013-09-16 20:45:00,
2013-09-16 16:00:00,65.8,52.0,30.33,SSE,157,7.3,-999.0,61,-99.99,,,0.00,Acu-Link.com,2013-09-16 21:00:00,
2013-09-16 16:16:00,66.4,53.0,30.33,SE,135,3.2,-999.0,62,-99.99,,,0.00,Acu-Link.com,2013-09-16 21:16:00,
2013-09-16 16:31:00,66.6,53.2,30.32,SE,135,7.3,-999.0,62,-99.99,,,0.00,Acu-Link.com,2013-09-16 21:31:00,
2013-09-16 16:46:00,66.0,53.0,30.32,SSE,157,7.3,-999.0,63,-99.99,,,0.00,Acu-Link.com,2013-09-16 21:46:00,
2013-09-16 17:01:00,66.4,53.4,30.31,SSE,157,4.2,-999.0,63,-99.99,,,0.00,Acu-Link.com,2013-09-16 22:01:00,
2013-09-16 17:16:00,65.8,52.0,30.30,SE,135,5.8,-999.0,61,-99.99,,,0.00,Acu-Link.com,2013-09-16 22:16:00,
2013-09-16 17:31:00,66.2,52.8,30.30,SSE,157,5.8,-999.0,62,-99.99,,,0.00,Acu-Link.com,2013-09-16 22:31:00,
2013-09-16 17:46:00,65.3,51.9,30.30,SE,135,5.8,-999.0,62,-99.99,,,0.00,Acu-Link.com,2013-09-16 22:46:00,
2013-09-16 18:01:00,66.2,52.8,30.30,ESE,112,4.7,-999.0,62,-99.99,,,0.00,Acu-Link.com,2013-09-16 23:01:00,
2013-09-16 18:17:00,65.7,52.3,30.29,ESE,112,4.2,-999.0,62,-99.99,,,0.00,Acu-Link.com,2013-09-16 23:17:00,
2013-09-16 18:32:00,63.9,51.9,30.30,SSE,157,3.7,-999.0,65,-99.99,,,0.00,Acu-Link.com,2013-09-16 23:32:00,
2013-09-16 18:47:00,62.4,52.1,30.29,SSE,157,2.7,-999.0,69,-99.99,,,0.00,Acu-Link.com,2013-09-16 23:47:00,
2013-09-16 19:03:00,61.2,51.7,30.28,ESE,112,2.7,-999.0,71,-99.99,,,0.00,Acu-Link.com,2013-09-17 00:03:00,
2013-09-16 19:18:00,59.7,51.0,30.28,ESE,112,0.0,-999.0,73,-99.99,,,0.00,Acu-Link.com,2013-09-17 00:18:00,
2013-09-16 19:33:00,58.3,50.4,30.28,SSE,157,2.7,-999.0,75,-99.99,,,0.00,Acu-Link.com,2013-09-17 00:33:00,
2013-09-16 19:48:00,57.0,50.6,30.28,SSW,202,1.7,-999.0,79,-99.99,,,0.00,Acu-Link.com,2013-09-17 00:48:00,
2013-09-16 20:04:00,55.8,50.1,30.28,SSE,157,0.0,-999.0,81,-99.99,,,0.00,Acu-Link.com,2013-09-17 01:04:00,
2013-09-16 20:19:00,55.0,49.9,30.28,South,180,0.0,-999.0,83,-99.99,,,0.00,Acu-Link.com,2013-09-17 01:19:00,
2013-09-16 20:49:00,54.5,49.8,30.28,SSE,157,2.2,-999.0,84,-99.99,,,0.00,Acu-Link.com,2013-09-17 01:49:00,
2013-09-16 21:04:00,54.5,50.1,30.28,SSE,157,3.2,-999.0,85,-99.99,,,0.00,Acu-Link.com,2013-09-17 02:04:00,
2013-09-16 21:20:00,54.1,50.3,30.28,SSE,157,2.7,-999.0,87,-99.99,,,0.00,Acu-Link.com,2013-09-17 02:20:00,
2013-09-16 21:35:00,53.6,49.8,30.27,SE,135,3.2,-999.0,87,-99.99,,,0.00,Acu-Link.com,2013-09-17 02:35:00,
2013-09-16 21:50:00,52.9,49.1,30.28,SSE,157,2.7,-999.0,87,-99.99,,,0.00,Acu-Link.com,2013-09-17 02:50:00,
2013-09-16 22:05:00,53.2,48.8,30.27,South,180,3.2,-999.0,85,-99.99,,,0.00,Acu-Link.com,2013-09-17 03:05:00,
2013-09-16 22:20:00,53.4,48.7,30.26,SE,135,3.2,-999.0,84,-99.99,,,0.00,Acu-Link.com,2013-09-17 03:20:00,
2013-09-16 22:36:00,53.4,48.0,30.26,SSE,157,4.7,-999.0,82,-99.99,,,0.00,Acu-Link.com,2013-09-17 03:36:00,
2013-09-16 22:51:00,53.4,48.4,30.26,SE,135,4.2,-999.0,83,-99.99,,,0.00,Acu-Link.com,2013-09-17 03:51:00,
2013-09-16 23:06:00,52.7,48.3,30.26,South,180,4.7,-999.0,85,-99.99,,,0.00,Acu-Link.com,2013-09-17 04:06:00,
2013-09-16 23:22:00,52.3,47.9,30.26,South,180,5.8,-999.0,85,-99.99,,,0.00,Acu-Link.com,2013-09-17 04:22:00,
2013-09-16 23:37:00,52.2,48.1,30.27,South,180,5.8,-999.0,86,-99.99,,,0.00,Acu-Link.com,2013-09-17 04:37:00,
2013-09-16 23:52:00,52.2,48.1,30.27,SSE,157,5.3,-999.0,86,-99.99,,,0.00,Acu-Link.com,2013-09-17 04:52:00,